Torna al catalogo

ATLAS 5 CENTAUR R/B

AttivoHEO
NORAD 45466·ROCKET BODY·🇺🇸 United States

Lanciato Mar 26, 2020 da Cape Canaveral Space Force Station

Loading…

Prossimi Passaggi (prossime 24 ore)

TLE

In scadenzaSource: Space-Track

Epoca: Aug 30, 2026, 16:36 UTC

1 45466U 20022C   26242.69207486 -.00000040  00000-0  00000+0 0  9993
2 45466  11.1055 139.9917 4160590 150.1223 241.9459  1.71714353 40323

Traccia ATLAS 5 CENTAUR R/B in tempo reale con AllMySat

Download on the App Store